User: anonymous   Login
Location: Hysolar-Haus
(48.7436°N, 9.0965°E)
Time: 21:17:37
(UTC+00:00)
Language:

ISS - Orbit

View from above orbital plane
View from above orbital plane
View from above satellite
View from above satellite

Ground track
Ground track

The orbit data is extracted from the following two-line orbital elements,

1 25544U 98067A   19082.60379165  .00016717  00000-0  10270-3 0  9037
2 25544  51.6384  66.6843 0003530 134.0022 226.1422 15.52872650  1950
Epoch (UTC): 23 March 2019 14:29:27
Eccentricity: 0.0003530
inclination: 51.6384°
perigee height: 406 km
apogee height: 411 km
right ascension of ascending node: 66.6843°
argument of perigee: 134.0022°
revolutions per day: 15.52872650
mean anomaly at epoch: 226.1422°
orbit number at epoch: 195

The dashed part of the orbit path shows where the satellite is in the earth's shadow,  

DLR